Tracking 27422 objects as of 30-May-2023
HD Live streaming from Space Station
objects crossing your sky now

STARLINK-5159

Track STARLINK-5159 now!
10-day predictions
STARLINK-5159 is classified as:


NORAD ID: 53974
Int'l Code: 2022-125L
Perigee: 546.1 km
Apogee: 547.7 km
Inclination: 53.2 °
Period: 95.4 minutes
Semi major axis: 6917 km
RCS: Unknown
Launch date: October 5, 2022
Source: United States (US)
Launch site: AIR FORCE WESTERN TEST RANGE (AFWTR)
Your satellite tracking list
Your tracking list is empty




NASA's NSSDC Master Catalog

Two Line Element Set (TLE):
1 53974U 22125L   23150.05797272  .00000343  00000-0  39649-4 0  9995
2 53974  53.2166  78.5821 0001157  86.2890 273.8234 15.08829848 36507
Source of the keplerian elements: AFSPC